Huntington, WV

2:50 PM EST on December 05, 2019 (GMT -0500)
Tri-State / Ferguson

Weather History for KHTS - October, 2019

Change the Weather History Date:

Friday, October 4, 2019

  Actual Average Record
Temperature  
Mean Temperature 19 °C 16 °C  
Max Temperature 24 °C 22 °C 33 °C (1941)
Min Temperature 14 °C 9 °C -1 °C (1974)
Degree Days  
Heating Degree Days 0 6  
Month to date heating degree days 0 22  
Since 1 July heating degree days 0 80  
Cooling Degree Days 2 1  
Month to date cooling degree days 52 6  
Year to date cooling degree days 1497 1117  
Growing Degree Days 18 (Base 50)    
Moisture  
Dew Point 10 °C    
Average Humidity 56    
Maximum Humidity 78    
Minimum Humidity 33    
Precipitation  
Precipitation 0.00 mm 2.03 mm 2.54 mm (1990)
Month to date precipitation 0.00 0.33  
Year to date precipitation 34.47 33.36  
Snow  
Snow 0.00 cm 0.00 cm 0.00 cm (2016)
Month to date snowfall 0.0 0.0  
Since 1 September snowfall 0.0 0.0  
Snow Depth 0.00 cm    
Sea Level Pressure  
Sea Level Pressure 1022 hPa    
Wind  
Wind Speed 12 km/h (North)    
Max Wind Speed 23 km/h    
Max Gust Speed 32 km/h    
Visibility 16 kilometers    
Events      
T = Trace of Precipitation, MM = Missing Value Source: NWS Daily Summary

Daily Weather History Graph

Daily Weather History Graph

Search for Another Location

Airport or City:

Astronomy

Oct. 04, 2019 Rise Set
Actual Time 7:28 AM EDT 7:08 PM EDT
Civil Twilight 7:02 AM EDT 7:35 PM EDT
Nautical Twilight 6:31 AM EDT 8:05 PM EDT
Astronomical Twilight 6:00 AM EDT 8:36 PM EDT
Moon 1:54 PM EDT (10/4) 11:41 PM EDT (10/4)
Length of Visible Light 12h 33m
Length of Day
11h 40m
Waxing Crescent, 39% of the Moon is Illuminated
Oct 4
Waxing Crescent
Oct 5
First Quarter
Oct 13
Full
Oct 21
Last Quarter
Oct 27
New

Hourly Weather History & Observations

Time (EDT) Temp. Dew Point Humidity Pressure Visibility Wind Dir Wind Speed Gust Speed Precip Events Conditions
12:51 AM 23.9 °C 15.0 °C 57% 1017.3 hPa 16.1 km NNW 16.7 km/h / 4.6 m/s - N/A   Clear
1:51 AM 22.2 °C 15.6 °C 66% 1018.2 hPa 16.1 km North 16.7 km/h / 4.6 m/s - N/A   Clear
2:51 AM 20.6 °C 15.0 °C 70% 1019.2 hPa 16.1 km North 14.8 km/h / 4.1 m/s - N/A   Overcast
3:51 AM 18.9 °C 13.9 °C 73% 1019.6 hPa 16.1 km North 13.0 km/h / 3.6 m/s - N/A   Scattered Clouds
4:51 AM 17.8 °C 12.2 °C 70% 1020.3 hPa 16.1 km North 7.4 km/h / 2.1 m/s - N/A   Clear
5:51 AM 16.7 °C 12.2 °C 75% 1020.9 hPa 16.1 km North 9.3 km/h / 2.6 m/s - N/A   Clear
6:13 AM 16.7 °C 12.8 °C 78% 1021.9 hPa 16.1 km North 13.0 km/h / 3.6 m/s - N/A   Mostly Cloudy
6:51 AM 16.1 °C 12.2 °C 78% 1021.6 hPa 16.1 km North 13.0 km/h / 3.6 m/s - N/A   Mostly Cloudy
7:51 AM 15.6 °C 11.7 °C 78% 1022.3 hPa 16.1 km NNW 16.7 km/h / 4.6 m/s - N/A   Overcast
8:51 AM 15.6 °C 10.6 °C 72% 1023.4 hPa 16.1 km NNW 14.8 km/h / 4.1 m/s - N/A   Mostly Cloudy
9:51 AM 16.1 °C 10.6 °C 70% 1023.6 hPa 16.1 km North 13.0 km/h / 3.6 m/s - N/A   Overcast
10:51 AM 17.8 °C 10.0 °C 60% 1023.5 hPa 16.1 km NNE 13.0 km/h / 3.6 m/s - N/A   Scattered Clouds
11:51 AM 19.4 °C 10.0 °C 54% 1023.5 hPa 16.1 km Variable 9.3 km/h / 2.6 m/s - N/A   Partly Cloudy
12:51 PM 20.6 °C 9.4 °C 49% 1023.2 hPa 16.1 km Variable 11.1 km/h / 3.1 m/s - N/A   Clear
1:51 PM 22.2 °C 8.9 °C 43% 1022.5 hPa 16.1 km NW 7.4 km/h / 2.1 m/s - N/A   Clear
2:51 PM 23.3 °C 8.9 °C 40% 1021.7 hPa 16.1 km Variable 5.6 km/h / 1.5 m/s - N/A   Clear
3:51 PM 23.9 °C 7.2 °C 34% 1021.4 hPa 16.1 km ENE 16.7 km/h / 4.6 m/s - N/A   Clear
4:51 PM 23.3 °C 7.2 °C 35% 1021.2 hPa 16.1 km NNW 13.0 km/h / 3.6 m/s - N/A   Clear
5:51 PM 22.2 °C 6.7 °C 37% 1021.5 hPa 16.1 km NNE 11.1 km/h / 3.1 m/s - N/A   Clear
6:51 PM 20.6 °C 6.1 °C 39% 1022.0 hPa 16.1 km North 13.0 km/h / 3.6 m/s - N/A   Clear
7:51 PM 18.9 °C 6.1 °C 43% 1022.3 hPa 16.1 km North 9.3 km/h / 2.6 m/s - N/A   Clear
8:51 PM 17.8 °C 6.7 °C 48% 1023.0 hPa 16.1 km North 11.1 km/h / 3.1 m/s - N/A   Clear
9:51 PM 16.7 °C 7.2 °C 53% 1023.1 hPa 16.1 km NE 5.6 km/h / 1.5 m/s - N/A   Clear
10:51 PM 15.6 °C 7.2 °C 57% 1023.4 hPa 16.1 km NNE 13.0 km/h / 3.6 m/s - N/A   Clear
11:51 PM 15.0 °C 8.3 °C 64% 1023.4 hPa 16.1 km NE 11.1 km/h / 3.1 m/s - N/A   Clear